Starlink 4296

operational
NORAD ID: 52995 Int'l Des: 2022-076 Owner: SPXS Country: US Constellation: starlink
LEOCIRCULAR

About Starlink 4296

Description loading...

Live Position

Loading 3D Globe...

Upcoming Passes

Altitude History

Altitude vs Time

uPlot chart will show altitude changes over time

Two-Line Element Set

1 52995U 22076K 25305.31981191 .00000723 00000-0 63513-4 0 9999
2 52995 53.2183 310.3980 0001442 95.0432 265.0725 15.08836606183464
Epoch: Nov 1, 2025 • Age: 19 hours

Current Status

Altitude 555.9 km
Velocity 7.58 km/s
Sub-Earth Point -45.25°S, 100.43°E
Launch Date Jul 7, 2022
Age 3.3 years
Type internet

Technical Details

Classification Payload
Mass 297.00 kg
Dry Mass 275.00 kg
Total Mass 297.00 kg
Length 0.20 m
Diameter 2.80 m
Span 9.00 m
Shape Box + pan
Manufacturer SPXS
Bus Type Starlink
Phase Status In Orbit
Owner/State SPXS/US

Large Constellations

Loading constellations...